Location: Windsor
(43.2292°N, 89.3015°W)
Time: 09:07:45
(UTC+00:00)

Tiros 1 - Pass Details

Date: 01 June 2022
Orbit: 629 x 663 km, 48.4° (Epoch: 04 July)

Event Time Altitude Azimuth Distance (km) Brightness Sun altitude
Exits shadow 06:32:24 - 275° (W) 2,449 10.1 -24.1°
Reaches altitude 10° 06:33:34 10° 279° (W) 2,007 9.7 -24.1°
Maximum altitude 06:38:01 46° 352° (N) 854 8.1 -24.0°
Drops below altitude 10° 06:42:30 10° 67° (ENE) 2,021 10.1 -23.8°
Sets 06:44:55 0° 73° (ENE) 2,935 10.9 -23.7°
